Regional Weather Roundup
Issued by NWS

Home | Current Version | Previous Version | Graphics & Text | Print | Product List | Glossary On
Versions: 1 2 3 4 5 6 7 8 9 10 11 12 13 14 15 16 17 18 19 20 21 22 23 24 25 26 27
000
ASUS43 KDMX 150207
RWRIA

WEATHER ROUNDUP FOR IOWA
NATIONAL WEATHER SERVICE DES MOINES IA
900 PM CDT MON APR 14 2014

NOTE: "FAIR" INDICATES FEW OR NO CLOUDS BELOW 12,000 FEET WITH NO
SIGNIFICANT WEATHER AND/OR OBSTRUCTIONS TO VISIBILITY.

* - THESE STATIONS ARE NOT NWS STATIONS...THUS NOT UNDER NWS
QUALITY CONTROL.  THEY ALSO DO NOT REPORT WEATHER SUCH
AS PRECIPITATION OR FOG.

IAZ001>003-012>014-020>022-031>034-043>046-150300-
   NORTHWEST IOWA

CITY           SKY/WX    TMP DP  RH WIND       PRES   REMARKS
CARROLL *      MOCLDY    32  21  64 N8        30.13R WCI  25
CHEROKEE *     CLEAR     31  16  52 N3        30.14R
DENISON *      CLOUDY    32  18  55 CALM      30.12S
LE MARS *      CLEAR     32  16  51 N8        30.16R WCI  25
ORANGE CITY *  CLEAR     30  12  47 N8        30.14R WCI  23
SHELDON *      PTCLDY    25  10  54 NW7       30.13R WCI  17
SIOUX CITY     PTCLDY    34  17  50 N8        30.15R WCI  27
SPENCER        CLEAR     29  16  58 N10       30.13R WCI  20
STORM LAKE *   PTCLDY    30  18  59 N9        30.13R WCI  22
$$

IAZ055>058-069>071-079>083-090>094-150300-
   SOUTHWEST IOWA

CITY           SKY/WX    TMP DP  RH WIND       PRES   REMARKS
ATLANTIC *     MIX PCPN  34  23  64 NW6       30.14R WCI  29
AUDUBON *      PTCLDY    32  18  55 N5        30.14R WCI  27
CLARINDA *     MOCLDY    36  25  64 CALM      30.16S
COUNCIL BLFS * CLOUDY    36  21  55 NW7G13    30.13R WCI  30
CRESTON *      PTCLDY    30  21  69 NW7       30.13R WCI  23
HARLAN  *      CLOUDY    34  21  60 NW7       30.17S WCI  28
LAMONI         CLEAR     32  21  64 NW6       30.12R WCI  26
RED OAK *      MOCLDY    36  21  55 N7        30.14S WCI  30
SHENANDOAH *   CLOUDY    36  25  64 CALM      30.16R
$$

IAZ047>049-059>061-072>074-084-150300-
   CENTRAL IOWA

CITY           SKY/WX    TMP DP  RH WIND       PRES   REMARKS
AMES             N/A     32  19  58 N12       30.12R WCI  23
ANKENY *       CLEAR     34  18  51 N9G16     30.12R WCI  26
CHARITON *     PTCLDY    34  23  64 NW9       30.12R WCI  26
DES MOINES     CLEAR     35  18  49 N6        30.13R WCI  30
GRINNELL*      CLEAR     31  23  71 NW9       30.10R WCI  23
KNOXVILLE *    PTCLDY    34  21  60 NW14      30.11R WCI  24
MARSHALLTOWN   CLEAR     32  19  58 NW15      30.10R WCI  22
NEWTON *       MOCLDY    32  19  59 NW10      30.12R WCI  24
PELLA *        CLEAR     32  23  69 NW8       30.12R WCI  25
PERRY *          N/A     34  20  56 N10       30.13R WCI  26
$$

IAZ004>006-015-016-023>025-035-036-150300-
   NORTH CENTRAL IOWA

CITY           SKY/WX    TMP DP  RH WIND       PRES   REMARKS
ALGONA *       CLEAR     30  18  59 N7        30.12R WCI  23
CLARION *      CLEAR     30  16  55 N10G17    30.11S WCI  21
ESTHERVILLE    CLEAR     27  15  61 N9        30.12  WCI  18
FORT DODGE *   CLEAR     30  16  55 N6        30.13R WCI  24
MASON CITY     CLEAR     29  15  56 NW15      30.11R WCI  18
FOREST CITY *    N/A     30  16  55 N12G17    30.10R WCI  21
IOWA FALLS *     N/A     32  18  57 NW15G23   30.11R WCI  21
$$

IAZ007>011-017>019-026>030-037>042-050>054-066-150300-
   NORTHEAST IOWA

CITY           SKY/WX    TMP DP  RH WIND       PRES   REMARKS
CEDAR RAPIDS   MOCLDY    32  20  61 NW10      30.06R WCI  24
CHARLES CITY * MOCLDY    32  16  51 NW14      30.08R WCI  22
CLINTON *      MOCLDY    30  25  80 NW7       30.06R WCI  23
DECORAH *      CLOUDY    30  16  55 N7        30.04R WCI  23
DUBUQUE        MOCLDY    30  20  66 NW10      30.02R WCI  21
MONTICELLO *   PTCLDY    32  19  59 NW10      30.04R WCI  24
OELWEIN *      PTCLDY   N/A N/A N/A NW14      30.06R
WATERLOO       CLEAR     31  17  56 NW16      30.08R WCI  20
$$

IAZ064-065-067-068-078-150300-
   EAST CENTRAL IOWA

CITY           SKY/WX    TMP DP  RH WIND       PRES   REMARKS
DAVENPORT      CLOUDY    33  24  69 NW14      30.04R WCI  23
IOWA CITY      PTCLDY    34  20  56 NW7       30.08R WCI  28
MT. PLEASANT * CLEAR     34  20  56 NW8       30.08R WCI  27
MUSCATINE *    MOCLDY    36  21  55 NW12      30.07R WCI  27
QUAD CITIES    MOCLDY    34  23  64 NW10      30.04R WCI  26
$$

IAZ062-063-075>077-085>089-095>099-150300-
   SOUTHEAST IOWA

CITY           SKY/WX    TMP DP  RH WIND       PRES   REMARKS
BURLINGTON     CLEAR     34  22  61 NW8       30.06R WCI  27
FAIRFIELD *    PTCLDY    34  23  64 NW10      30.09R WCI  26
FORT MADISON * PTCLDY    34  25  69 NW9       30.08R WCI  26
KEOKUK *       CLEAR     34  23  64 NW9       30.07R WCI  26
OSKALOOSA *      N/A     33  23  67 NW14      30.10R WCI  23
CENTERVILLE *    N/A     34  23  64 NW10      30.12R WCI  26
OTTUMWA        PTCLDY    33  22  63 NW12      30.10R WCI  24
WASHINGTON *   CLOUDY    34  21  60 NW20G29   30.08R WCI  22
$$

ABBREVIATIONS USED IN REMARKS
   TC - TEMPERATURES IN CELSIUS
  WCI - WIND CHILL INDEX
   HX - HEAT INDEX
  VSB - VISIBILITY
$$




USA.gov is the U.S. government's official web portal to all federal, state and local government web resources and services.